Location: Binningen
(47.7924°N, 8.7261°E)
Time: 20:30:08
(UTC+00:00)

USA 308 - Pass Details

Date: 17 May 2021
Orbit: 568 x 576 km, 54.0° (Epoch: 10 May)

Event Time Altitude Azimuth Distance (km) Brightness Sun altitude
Rises 19:52:06 0° 296° (WNW) 2,784 8.2 -8.0°
Reaches altitude 10° 19:54:32 10° 286° (WNW) 1,883 6.7 -8.3°
Maximum altitude 19:58:19 31° 224° (SW) 1,022 4.2 -8.8°
Drops below altitude 10° 20:02:05 10° 162° (SSE) 1,876 5.0 -9.2°
Enters shadow 20:02:16 - 161° (SSE) 1,940 5.1 -9.3°
